Regional Weather Roundup
Issued by NWS Goodland, KS

Home | Current Version | Previous Version | Graphics & Text | Print | Product List | Glossary On
Versions: 1 2 3 4 5 6 7 8 9 10 11 12 13 14 15 16 17 18 19 20 21 22 23 24 25 26 27 28 29 30 31 32 33 34 35 36 37 38 39 40 41 42 43 44 45 46 47 48 49 50
659
ASUS43 KGLD 231359
RWRGLD

GOODLAND FORECAST AREA HOURLY WEATHER ROUNDUP
NATIONAL WEATHER SERVICE GOODLAND KS
800 AM MDT THU MAR 23 2017

...OFFICIAL OBSERVATIONS...

CITY           SKY/WX    TMP DP  RH WIND       PRES   REMARKS
GOODLAND KS    SUNNY     48  47  96 S18       29.71F FOG
HILL CITY KS   FOG       54  54 100 SE9G18    29.78F VSB 1
IMPERIAL NEB   CLOUDY    45  43  93 SE9       29.71R FOG
MCCOOK NEB     FOG       49  49 100 E8        29.75R VSB 1/2
AKRON CO       CLOUDY    47  42  83 SW10      29.70R
BURLINGTON CO  SUNNY     50  47  89 S16       29.72S
LIMON CO       FOG       41  41 100 CALM      29.75S VSB 1/2
$$

...UNOFFICIAL OBSERVATIONS...

CITY           SKY/WX    TMP DP  RH WIND       PRES   REMARKS
LENORA KS        N/A     53  32  45 SE12        N/A
NORTON KS      FOG       50  48  93 SE12G18   29.76S VSB 1
SHARON SPRINGS   N/A     48  46  94 S18         N/A
TRENTON NEB      N/A     49  32  52 SE7         N/A
YUMA CO        FAIR      50  45  81 SW9       29.69R
$$




USA.gov is the U.S. government's official web portal to all federal, state and local government web resources and services.